User: anonymous   Login
Location: Unspecified
(0.0000°N, 0.0000°E)
Time: 22:34:21
(UTC+00:00)
Language:

Cosmos 1589 - Orbit

View from above orbital plane
View from above orbital plane
View from above satellite
View from above satellite

Ground track
Ground track

The orbit data is extracted from the following two-line orbital elements,

1 15171U 84084A   18202.91021948 +.00000005 +00000-0 -38426-4 0  9999
2 15171 082.5990 125.7168 0005380 205.7084 219.3327 12.42201090539377
Epoch (UTC): 21 July 2018 21:50:42
Eccentricity: 0.0005380
inclination: 82.5990°
perigee height: 1493 km
apogee height: 1501 km
right ascension of ascending node: 125.7168°
argument of perigee: 205.7084°
revolutions per day: 12.42201090
mean anomaly at epoch: 219.3327°
orbit number at epoch: 53937

The dashed part of the orbit path shows where the satellite is in the earth's shadow,  

DLR